Gulf - Port au Port: Past 24 Hour Conditions

 

Cartwright Airport

06:00 AM ADT 24 October 2014
This table is a summary of hourly weather conditions for the past 24 hours.
Date / Time
(ADT)
Wind(knots) Conditions Visibility(km) Pressure(kPa) Air tempC) Relative humidity(%) Dew pointC)
24 October 2014
6:00 calm Clear 24 102.0 1 83 -2
5:00 NW 5 Clear 24 101.9 4 66 -1
4:00 NW 6 Clear 24 101.9 5 67 -1
3:00 WNW 10 Mainly Clear 24 101.9 6 55 -3
2:00 W 7 Mainly Clear 24 101.9 7 45 -4
1:00 W 9 Mainly Clear 24 101.8 8 44 -4
0:00 W 10 Mainly Clear 24 101.8 7 47 -3
23 October 2014
23:00 SW 7 Mainly Clear 24 101.8 7 57 -1
22:00 SW 17 Mainly Clear 24 101.7 7 51 -2
21:00 WSW 16 Mainly Clear 24 101.7 7 52 -2
20:00 SW 14 Mainly Clear 24 101.8 8 54 -1
19:00 WSW 15 Clear 24 101.8 10 43 -3
18:00 SW 10 Clear 24 101.7 10 43 -2
17:00 SW 10 Sunny 24 101.7 11 39 -2
16:00 SSW 5 Sunny 24 101.7 13 32 -3
15:00 SW 12 Sunny 24 101.8 12 36 -3
14:00 SW 10 Sunny 24 101.9 12 34 -3
13:00 SW 10 Sunny 24 101.9 10 40 -3
12:00 SW 10 gust 17 Sunny 24 102.0 8 46 -3
11:00 SW 10 gust 17 Mainly Sunny 24 102.1 6 53 -3
10:00 SW 15 gust 26 Mainly Sunny 24 102.1 5 59 -3
9:00 SW 10 gust 23 Sunny 24 102.1 4 66 -2
8:00 SW 16 gust 29 Sunny 24 102.2 3 66 -3
7:00 SW 13 gust 25 Clear 24 102.2 3 70 -2
6:00 SW 15 gust 25 Clear 24 102.2 3 71 -2
 
Map of Atlantic - Newfoundland marine weather areas Southwestern Grand Banks - 44138 Banquereau - 44139 Tail of the Bank - 44140 Nickerson Bank - 44251 Northeast Burgeo Bank - 44255 Blanc-Sablon Airport Cap Whittle Chevery Natashquan Airport Heath Point Miscou Island Grand Étang Ingonish Beach North Mountain St.Paul Island J.A. Douglas McCurdy Sydney Airport Charlottetown Airport East Point North Cape Argentia Bonavista Burgeo Cape Race Corner Brook Daniel's Harbour Englee Ferolle Point La Scie Port aux Basques Rocky Harbour Sagona Island St. Anthony Airport St. John's Int'l Airport St. Lawrence Stephenville Airport Twillingate Winterland Wreckhouse Cartwright Airport Mary's Harbour Grates Cove Pool's Island Marticot Island Long Pond Îles de la Madeleine Airport
Legend: buoyBuoy land stationLand Station